• In Österreich
  • Länderverzeichnis
  • Für 7 Tage
  • Wassertemperatur
  • Satellitenkarten
  • Wetterkarte
  • News
  • Widgets
  • user-avatar
    Anmelden

    Stündliche Wetter Wavre

    Heute, 14 August, Dienstag

    Zeit Temperatur Niederschläge Wind Luftdruck Luftfeuchtigkeit
    00:00 +16°C° 0 mm 3 m/S 752 mmHg 95%
    01:00 +16°C° 0 mm 3 m/S 752 mmHg 95%
    02:00 +16°C° 0 mm 3 m/S 753 mmHg 96%
    03:00 +14°C° 0 mm 3 m/S 753 mmHg 96%
    04:00 +16°C° 0 mm 3 m/S 753 mmHg 95%
    05:00 +16°C° 0 mm 3 m/S 754 mmHg 95%
    06:00 +17°C° 0 mm 3 m/S 754 mmHg 93%
    07:00 +18°C° 0,1 mm 4 m/S 755 mmHg 89%
    08:00 +19°C° 0,1 mm 4 m/S 755 mmHg 86%
    09:00 +20°C° 0,1 mm 4 m/S 755 mmHg 82%
    10:00 +21°C° 0,3 mm 4 m/S 755 mmHg 76%
    11:00 +23°C° 0,3 mm 5 m/S 756 mmHg 70%
    12:00 +25°C° 0,3 mm 5 m/S 756 mmHg 64%
    13:00 +25°C° 0,1 mm 5 m/S 756 mmHg 62%
    14:00 +25°C° 0,1 mm 5 m/S 756 mmHg 60%
    15:00 +25°C° 0,1 mm 5 m/S 756 mmHg 58%
    16:00 +23°C° 0 mm 4 m/S 756 mmHg 61%
    17:00 +22°C° 0 mm 4 m/S 756 mmHg 64%
    18:00 +21°C° 0 mm 3 m/S 757 mmHg 66%
    19:00 +20°C° 0 mm 3 m/S 757 mmHg 71%
    20:00 +19°C° 0 mm 2 m/S 757 mmHg 75%
    21:00 +17°C° 0 mm 2 m/S 758 mmHg 80%
    22:00 +17°C° 0 mm 2 m/S 758 mmHg 82%
    23:00 +17°C° 0 mm 2 m/S 758 mmHg 83%

    Morgen, 15 August, Mittwoch

    Zeit Temperatur Niederschläge Wind Luftdruck Luftfeuchtigkeit
    00:00 +17°C° 0 mm 2 m/S 758 mmHg 85%
    01:00 +17°C° 0 mm 2 m/S 758 mmHg 86%
    02:00 +17°C° 0 mm 3 m/S 758 mmHg 87%
    03:00 +17°C° 0 mm 3 m/S 758 mmHg 88%
    04:00 +17°C° 0 mm 3 m/S 758 mmHg 89%
    05:00 +17°C° 0 mm 3 m/S 758 mmHg 89%
    06:00 +18°C° 0 mm 3 m/S 758 mmHg 89%
    07:00 +19°C° 0 mm 3 m/S 759 mmHg 83%
    08:00 +21°C° 0 mm 4 m/S 759 mmHg 77%
    09:00 +22°C° 0 mm 4 m/S 759 mmHg 72%
    10:00 +23°C° 0 mm 4 m/S 759 mmHg 67%
    11:00 +25°C° 0 mm 4 m/S 759 mmHg 62%
    12:00 +26°C° 0 mm 4 m/S 758 mmHg 58%
    13:00 +27°C° 0 mm 4 m/S 758 mmHg 57%
    14:00 +27°C° 0 mm 4 m/S 758 mmHg 55%
    15:00 +27°C° 0 mm 4 m/S 758 mmHg 54%
    16:00 +27°C° 0 mm 3 m/S 758 mmHg 58%
    17:00 +26°C° 0 mm 3 m/S 758 mmHg 62%
    18:00 +25°C° 0 mm 2 m/S 758 mmHg 66%
    19:00 +23°C° 0 mm 2 m/S 758 mmHg 71%
    20:00 +20°C° 0 mm 2 m/S 758 mmHg 76%
    21:00 +19°C° 0 mm 2 m/S 758 mmHg 82%
    22:00 +18°C° 0 mm 2 m/S 758 mmHg 84%
    23:00 +18°C° 0 mm 2 m/S 758 mmHg 86%

    übermorgen, 16 August, Donnerstag

    Zeit Temperatur Niederschläge Wind Luftdruck Luftfeuchtigkeit
    00:00 +17°C° 0 mm 2 m/S 758 mmHg 89%
    01:00 +17°C° 0 mm 2 m/S 757 mmHg 90%
    02:00 +16°C° 0 mm 2 m/S 757 mmHg 91%
    03:00 +16°C° 0 mm 2 m/S 757 mmHg 91%
    04:00 +17°C° 0 mm 2 m/S 757 mmHg 89%
    05:00 +17°C° 0 mm 2 m/S 757 mmHg 87%
    06:00 +18°C° 0 mm 2 m/S 757 mmHg 84%
    07:00 +20°C° 0 mm 3 m/S 756 mmHg 76%
    08:00 +22°C° 0 mm 3 m/S 756 mmHg 68%
    09:00 +25°C° 0 mm 3 m/S 756 mmHg 60%
    10:00 +27°C° 0 mm 4 m/S 756 mmHg 56%
    11:00 +28°C° 0 mm 4 m/S 755 mmHg 52%
    12:00 +29°C° 0 mm 4 m/S 755 mmHg 48%
    13:00 +29°C° 0 mm 4 m/S 755 mmHg 47%
    14:00 +30°C° 0 mm 4 m/S 754 mmHg 46%
    15:00 +30°C° 0 mm 4 m/S 754 mmHg 46%
    16:00 +28°C° 0 mm 4 m/S 754 mmHg 52%
    17:00 +27°C° 0 mm 4 m/S 754 mmHg 58%
    18:00 +26°C° 0 mm 4 m/S 754 mmHg 65%
    19:00 +24°C° 0,1 mm 3 m/S 755 mmHg 73%
    20:00 +21°C° 0,1 mm 3 m/S 755 mmHg 81%
    21:00 +19°C° 0,1 mm 2 m/S 755 mmHg 89%
    22:00 +18°C° 0,4 mm 2 m/S 756 mmHg 90%
    23:00 +18°C° 0,4 mm 2 m/S 756 mmHg 92%

    17 August, Freitag

    Zeit Temperatur Niederschläge Wind Luftdruck Luftfeuchtigkeit
    00:00 +18°C° 0,4 mm 1 m/S 756 mmHg 94%
    01:00 +18°C° 0,5 mm 1 m/S 756 mmHg 94%
    02:00 +16°C° 0,5 mm 1 m/S 756 mmHg 94%
    03:00 +16°C° 0,5 mm 1 m/S 756 mmHg 95%
    04:00 +16°C° 0,1 mm 1 m/S 757 mmHg 93%
    05:00 +18°C° 0,1 mm 1 m/S 757 mmHg 92%
    06:00 +18°C° 0,1 mm 1 m/S 757 mmHg 90%
    07:00 +18°C° 0 mm 2 m/S 757 mmHg 81%
    08:00 +20°C° 0 mm 2 m/S 758 mmHg 72%
    09:00 +21°C° 0 mm 3 m/S 758 mmHg 63%
    10:00 +22°C° 0 mm 3 m/S 758 mmHg 57%
    11:00 +24°C° 0 mm 3 m/S 758 mmHg 52%
    12:00 +25°C° 0 mm 3 m/S 758 mmHg 46%
    13:00 +25°C° 0 mm 4 m/S 758 mmHg 46%
    14:00 +25°C° 0 mm 4 m/S 758 mmHg 47%
    15:00 +23°C° 0 mm 4 m/S 758 mmHg 47%
    16:00 +22°C° 0 mm 3 m/S 759 mmHg 52%
    17:00 +22°C° 0 mm 3 m/S 759 mmHg 56%
    18:00 +21°C° 0 mm 2 m/S 759 mmHg 60%
    19:00 +19°C° 0 mm 2 m/S 759 mmHg 63%
    20:00 +18°C° 0 mm 2 m/S 760 mmHg 67%
    21:00 +16°C° 0 mm 1 m/S 760 mmHg 70%
    22:00 +15°C° 0 mm 2 m/S 760 mmHg 74%
    23:00 +15°C° 0 mm 2 m/S 761 mmHg 77%

    18 August, Samstag

    Zeit Temperatur Niederschläge Wind Luftdruck Luftfeuchtigkeit
    00:00 +14°C° 0 mm 2 m/S 761 mmHg 80%
    01:00 +14°C° 0 mm 2 m/S 761 mmHg 83%
    02:00 +14°C° 0 mm 2 m/S 761 mmHg 86%
    03:00 +13°C° 0 mm 2 m/S 761 mmHg 89%
    04:00 +13°C° 0 mm 3 m/S 761 mmHg 88%
    05:00 +13°C° 0 mm 3 m/S 761 mmHg 87%
    06:00 +14°C° 0 mm 3 m/S 761 mmHg 86%
    07:00 +17°C° 0 mm 3 m/S 761 mmHg 80%
    08:00 +19°C° 0 mm 4 m/S 761 mmHg 73%
    09:00 +20°C° 0 mm 4 m/S 761 mmHg 66%
    10:00 +21°C° 0 mm 4 m/S 761 mmHg 65%
    11:00 +22°C° 0 mm 4 m/S 761 mmHg 64%
    12:00 +22°C° 0 mm 5 m/S 761 mmHg 63%
    13:00 +23°C° 0 mm 5 m/S 760 mmHg 62%
    14:00 +23°C° 0 mm 4 m/S 760 mmHg 61%
    15:00 +25°C° 0 mm 4 m/S 760 mmHg 60%
    16:00 +23°C° 0 mm 4 m/S 760 mmHg 64%
    17:00 +22°C° 0 mm 3 m/S 760 mmHg 67%
    18:00 +22°C° 0 mm 3 m/S 760 mmHg 71%
    19:00 +20°C° 0 mm 3 m/S 760 mmHg 76%
    20:00 +19°C° 0 mm 3 m/S 761 mmHg 82%
    21:00 +17°C° 0 mm 2 m/S 761 mmHg 87%
    22:00 +17°C° 0 mm 2 m/S 761 mmHg 89%
    23:00 +16°C° 0 mm 2 m/S 761 mmHg 91%

    19 August, Sonntag

    Zeit Temperatur Niederschläge Wind Luftdruck Luftfeuchtigkeit
    00:00 +16°C° 0 mm 3 m/S 761 mmHg 93%
    01:00 +16°C° 0 mm 2 m/S 761 mmHg 94%
    02:00 +15°C° 0 mm 2 m/S 761 mmHg 95%
    03:00 +15°C° 0 mm 2 m/S 761 mmHg 96%
    04:00 +16°C° 0 mm 2 m/S 761 mmHg 95%
    05:00 +16°C° 0 mm 3 m/S 761 mmHg 94%
    06:00 +17°C° 0 mm 3 m/S 761 mmHg 92%
    07:00 +18°C° 0 mm 3 m/S 761 mmHg 89%
    08:00 +19°C° 0 mm 3 m/S 761 mmHg 86%
    09:00 +20°C° 0 mm 3 m/S 761 mmHg 82%
    10:00 +21°C° 0 mm 3 m/S 761 mmHg 78%
    11:00 +22°C° 0 mm 4 m/S 761 mmHg 75%
    12:00 +23°C° 0 mm 4 m/S 761 mmHg 71%
    13:00 +23°C° 0 mm 4 m/S 760 mmHg 70%
    14:00 +25°C° 0 mm 4 m/S 760 mmHg 68%
    15:00 +25°C° 0 mm 4 m/S 760 mmHg 67%
    16:00 +25°C° 0 mm 3 m/S 760 mmHg 70%
    17:00 +24°C° 0 mm 3 m/S 760 mmHg 72%
    18:00 +24°C° 0 mm 2 m/S 760 mmHg 75%
    19:00 +21°C° 0 mm 2 m/S 760 mmHg 79%
    20:00 +20°C° 0 mm 2 m/S 760 mmHg 83%
    21:00 +19°C° 0 mm 2 m/S 760 mmHg 87%
    22:00 +19°C° 0 mm 2 m/S 760 mmHg 89%
    23:00 +18°C° 0 mm 2 m/S 760 mmHg 91%
    Mehr zeigen